Dewpoint
67 67 67 67 66 66 67 67 67 67 67 67 67 67 67 67 67 67 67 67 66 66 65 65 65 65 65 65 65 65 65 65 65 65 65 65 65 65 65 65 66 66 66 66 66 66 66 66 66 66 66 66 67 67 67 67 66 66 67 67 67 67 67 67 67 67 67 67 67 67 67 67 67 67 67 67 67 68 68 68 68 68 68 68 68 67 67 67 66 66 66 66 66 66 66 66 65 65 64 62 62 62 62
67 67 66 66 66 66 66 66 65 66 66 67 67 67 67 67 67 67 66 66 66 65 65 65 65 65 65 65 65 65 65 65 65 65 65 65 65 65 65 65 65 65 65 65 66 66 66 66 66 66 66 66 66 66 66 66 66 66 66 66 66 66 66 66 66 66 66 66 66 66 66 66 67 67 67 67 67 67 67 68 68 68 68 67 67 67 66 66 66 66 66 66 66 66 65 65 65 64 64 63 63 62 62
67 67 66 66 66 65 65 64 64 65 65 66 66 66 66 66 66 66 66 65 65 65 64 64 64 64 64 64 64 64 64 65 65 65 65 65 65 65 65 65 65 65 65 65 65 65 65 65 65 65 65 65 64 64 64 65 65 65 65 65 65 65 65 65 65 65 65 65 65 65 66 66 66 66 67 67 67 67 67 67 67 67 67 67 67 66 66 66 66 66 66 65 65 65 65 65 64 64 64 64 63 63 63
66 67 66 66 65 65 64 64 64 64 64 65 65 65 65 65 65 65 65 65 64 64 64 64 64 64 64 64 64 64 64 64 64 64 64 64 64 64 64 64 64 64 64 64 64 64 64 64 64 64 64 64 64 64 64 64 64 64 64 64 64 64 64 64 64 64 64 64 64 65 65 65 66 66 66 66 67 67 67 67 67 67 67 66 66 66 66 66 66 65 65 65 65 65 64 64 64 63 63 63 63 63 63
66 66 66 65 65 64 64 64 64 64 64 64 64 64 64 64 65 64 64 64 64 64 64 64 64 64 64 64 64 64 64 64 64 64 64 64 64 64 64 63 62 62 62 62 62 63 63 63 63 63 63 63 63 63 64 64 64 64 64 64 64 64 64 64 64 64 64 64 64 64 64 64 65 65 65 66 66 66 66 66 66 66 66 66 66 66 66 66 66 65 65 65 65 65 64 64 63 63 63 63 63 62 62
66 66 66 65 64 64 63 63 63 63 63 63 63 63 64 64 64 64 63 63 63 63 63 63 64 64 64 64 64 64 64 64 63 63 64 64 64 63 62 61 60 60 59 59 59 60 62 63 62 63 63 63 64 63 63 63 63 63 63 63 63 63 63 64 64 64 64 64 64 64 64 64 64 64 65 65 66 66 66 66 65 65 65 65 65 65 65 65 65 65 65 65 65 65 64 64 64 63 63 63 63 62 62
65 66 65 64 64 63 63 62 62 62 62 62 62 62 62 63 62 62 61 61 61 62 62 63 63 63 64 64 63 63 63 63 62 61 62 63 62 61 59 59 59 59 58 58 58 59 61 62 62 63 63 63 63 63 63 63 63 63 63 63 63 63 63 64 64 64 64 64 64 64 64 64 64 64 64 65 65 65 66 65 64 64 65 65 65 65 65 65 65 65 65 65 65 65 65 64 64 64 63 63 63 62 61
65 65 65 64 63 62 62 62 61 61 61 61 60 60 60 60 60 59 59 59 59 60 61 62 62 63 63 63 62 62 62 62 60 60 60 60 59 59 58 58 58 57 57 58 58 58 59 60 60 62 63 63 63 63 63 63 63 63 63 63 63 63 64 64 64 64 64 64 65 64 64 64 64 64 64 64 65 65 65 65 64 64 64 64 64 64 65 65 65 64 64 64 65 65 65 65 64 64 64 63 63 62 61
65 65 64 63 62 61 61 61 61 61 60 60 59 59 59 58 59 59 59 59 59 59 60 61 61 62 62 61 61 61 61 60 60 59 59 58 58 59 58 57 57 57 57 57 58 59 59 60 60 62 63 63 63 63 63 63 63 63 63 63 64 64 63 63 63 63 63 64 64 64 64 64 64 64 64 64 64 64 64 64 63 63 63 63 64 64 64 64 64 64 64 64 64 65 65 64 64 64 64 63 63 62 61
65 64 63 62 61 61 61 60 60 60 60 59 59 59 58 58 58 59 59 59 59 59 60 60 60 61 61 60 60 60 60 59 59 59 59 58 58 59 58 58 57 57 57 57 58 59 61 62 62 62 61 61 62 63 63 64 64 63 63 63 63 63 63 63 63 63 63 63 63 63 64 64 64 64 63 63 63 63 62 61 61 62 62 62 63 63 63 63 62 63 63 63 64 64 64 64 64 64 63 63 62 62 61
64 63 62 61 61 60 60 60 60 60 59 59 59 59 59 59 59 60 60 60 60 60 61 61 60 60 60 59 59 59 59 59 59 58 58 58 59 58 58 58 58 57 57 58 58 59 59 61 60 59 58 58 59 59 61 61 61 61 61 62 62 63 63 63 62 62 62 62 62 62 63 63 64 63 62 61 61 61 60 60 60 61 61 62 62 61 62 62 62 63 63 64 63 64 64 64 63 62 62 62 62 61 61
64 63 62 61 61 60 60 60 60 60 59 59 59 59 59 59 60 61 61 61 61 61 62 63 62 60 59 59 58 58 58 58 58 58 58 58 59 58 58 58 57 57 58 58 57 57 58 58 57 56 56 56 56 56 57 58 58 58 58 59 59 62 62 61 60 61 61 61 62 61 61 61 62 61 61 60 61 60 60 60 60 61 61 61 61 61 61 62 62 62 63 63 63 63 63 62 62 62 62 61 61 60 60
64 62 62 61 61 61 61 61 61 60 59 59 59 59 60 60 61 61 61 62 62 63 64 64 62 60 59 59 58 58 58 57 58 57 58 58 59 58 58 58 57 57 58 58 58 58 57 57 56 56 56 56 56 56 57 57 57 57 57 57 57 60 59 58 58 59 59 59 60 59 59 59 59 59 59 59 59 59 59 59 59 60 60 60 60 60 61 61 62 61 61 61 62 61 61 61 61 61 61 61 61 61 61
63 63 62 62 62 62 62 62 61 61 60 60 60 61 61 61 61 61 61 62 63 64 66 65 61 59 59 59 59 59 58 58 58 58 58 58 58 58 59 58 57 58 58 58 58 58 58 58 57 57 57 57 57 57 57 58 57 57 57 57 57 58 58 57 57 57 57 57 58 58 57 57 57 57 57 58 58 58 57 58 58 59 59 59 59 59 60 61 61 61 61 62 62 61 61 61 61 61 61 61 62 62 62
61 62 62 62 62 62 62 62 62 62 61 61 61 62 62 62 62 62 62 62 64 65 65 64 60 59 58 58 58 58 58 58 58 57 57 57 57 59 59 59 59 59 59 58 58 58 58 58 58 57 58 58 57 58 58 58 58 58 57 56 56 56 56 56 55 55 55 55 55 56 55 55 55 55 55 56 56 56 56 56 56 56 55 55 55 56 57 59 60 61 61 62 62 61 61 61 61 61 62 62 62 62 62
58 60 62 63 63 63 63 63 63 62 62 62 62 62 62 62 62 62 62 63 64 64 63 61 59 59 58 57 57 58 58 58 56 56 57 57 57 59 59 60 60 60 59 59 58 57 57 57 58 57 58 58 57 57 58 58 57 56 55 54 54 54 54 53 53 53 54 54 54 54 54 54 53 53 53 53 54 54 54 55 54 54 54 54 54 54 55 56 58 59 59 59 59 59 59 60 60 61 61 61 61 61 62
56 59 62 62 62 62 62 63 63 63 63 62 62 62 62 62 62 62 62 62 63 63 61 59 59 59 58 58 57 57 56 55 55 55 55 55 56 58 59 59 59 59 59 58 56 55 55 55 55 56 57 57 54 53 54 54 54 54 53 53 53 53 53 53 53 53 54 54 53 53 52 51 51 51 51 52 53 53 53 54 54 55 55 56 56 56 56 56 56 57 57 58 58 58 59 60 61 61 61 61 60 61 61
54 59 61 62 61 62 62 63 63 63 63 62 62 63 63 62 61 61 61 62 62 61 60 59 59 58 57 57 57 56 55 54 55 55 54 54 53 55 55 56 56 56 55 55 54 54 53 52 51 52 53 53 50 50 50 50 51 52 53 53 52 52 52 52 53 53 53 53 52 51 50 50 50 50 50 50 51 52 52 52 52 52 53 53 54 55 55 55 56 56 56 57 58 59 60 61 61 61 61 61 61 61 61
50 56 60 61 61 61 62 63 63 63 63 62 62 63 62 62 61 60 60 61 61 60 59 59 58 58 57 56 55 54 54 54 55 54 54 52 51 52 53 54 54 54 53 53 53 53 53 52 49 47 48 49 49 49 49 50 51 52 52 53 53 52 52 52 53 53 53 51 50 49 48 48 47 47 48 49 50 51 50 50 50 50 50 49 49 50 50 52 53 54 55 56 58 59 60 61 61 61 61 61 61 61 61
46 54 58 60 60 61 62 62 63 63 63 62 62 62 62 62 61 60 60 59 59 59 59 58 57 57 56 55 53 54 54 54 54 53 53 52 51 51 51 52 52 52 52 52 52 52 52 51 48 47 47 47 48 49 49 50 50 50 51 52 53 53 52 51 52 52 52 50 48 47 46 46 45 46 46 48 50 50 50 50 50 49 48 48 47 46 47 48 50 51 53 55 56 58 60 62 62 62 61 61 61 61 61
44 50 55 59 60 61 61 62 62 62 62 62 62 62 62 61 61 59 59 59 59 58 58 57 56 56 55 53 53 54 55 54 53 53 53 53 52 51 50 50 51 51 51 52 52 52 51 50 48 46 46 47 48 49 50 50 50 50 50 51 52 53 52 50 50 51 50 48 46 45 44 43 44 44 45 47 49 50 49 49 49 48 46 46 46 45 46 46 49 50 52 54 55 55 56 58 60 61 62 62 62 62 62
43 46 50 54 57 59 60 61 62 62 62 62 61 60 60 60 60 59 59 58 58 57 56 55 55 54 53 53 53 54 54 54 54 54 53 52 51 51 50 50 50 51 51 51 51 51 51 50 48 47 46 47 48 48 48 49 49 48 48 49 51 52 50 49 49 49 48 47 45 43 43 43 43 43 44 46 49 48 47 46 46 46 45 44 44 44 45 46 49 50 51 52 52 51 50 49 50 52 55 57 57 59 61
41 43 45 47 50 55 58 59 60 60 60 60 59 59 59 59 58 58 57 57 56 55 55 54 53 53 53 53 53 53 53 53 53 53 51 50 51 51 50 50 50 50 51 51 50 50 50 50 48 47 46 46 46 47 47 47 48 46 46 48 50 50 49 47 47 47 47 46 43 43 43 42 42 43 44 46 48 47 46 44 43 43 42 42 42 42 43 45 48 50 50 49 47 43 39 37 37 41 42 44 48 50 52
41 41 41 41 42 46 51 56 58 58 58 58 58 57 57 57 57 56 55 55 55 54 53 53 52 53 53 52 52 52 52 52 51 51 50 49 50 50 50 50 50 50 50 50 49 49 49 49 48 46 46 45 46 46 46 46 46 46 46 47 49 50 47 45 45 46 46 46 44 43 42 42 42 43 45 46 48 46 44 42 41 41 42 42 41 41 42 44 48 47 45 41 38 34 32 31 32 31 32 35 41 43 46
40 40 40 40 40 43 49 54 55 55 55 56 56 56 56 56 56 55 55 54 53 52 52 52 52 53 52 51 51 51 50 50 50 50 49 48 48 48 48 49 49 50 50 50 49 49 49 49 48 46 45 45 45 45 45 45 45 45 46 47 49 50 47 44 44 45 46 46 44 43 42 41 42 44 45 46 47 46 43 41 40 41 41 41 40 40 41 44 47 43 38 35 34 32 31 31 31 30 29 30 32 35 40
41 40 39 39 40 42 47 52 54 54 54 54 54 54 54 54 55 54 53 52 52 51 51 52 52 52 51 50 50 49 49 49 49 49 49 48 48 47 48 48 49 50 50 50 49 48 48 48 49 46 45 45 44 44 44 44 44 45 46 47 48 49 47 45 43 45 45 45 45 43 42 41 43 45 46 47 47 44 41 40 40 40 40 40 39 39 41 44 44 39 36 34 35 33 33 32 32 31 30 29 28 29 32
39 38 37 37 38 41 45 50 53 53 53 53 53 53 53 53 53 53 52 51 51 52 51 51 52 51 50 49 49 48 48 48 49 50 49 48 47 47 47 47 49 49 49 48 48 47 47 47 47 46 46 45 44 43 43 43 43 44 46 47 47 49 48 46 45 45 46 45 44 41 41 42 44 45 46 46 46 44 42 41 41 41 39 38 38 39 41 42 40 37 35 35 35 34 34 33 32 31 30 29 28 28 30
37 36 36 36 39 39 43 49 53 53 53 53 52 51 51 51 52 52 51 50 50 51 51 50 50 50 49 48 48 47 47 48 48 50 49 48 47 46 46 46 47 47 47 47 47 46 46 46 47 46 46 45 44 44 44 43 43 44 45 46 47 48 47 46 45 45 46 45 44 42 42 43 45 44 44 44 45 44 43 41 41 39 37 37 36 37 38 39 37 37 36 35 35 34 34 33 32 32 31 30 29 28 29
37 37 36 36 40 39 42 48 52 52 52 51 51 50 50 50 51 50 50 50 50 50 49 48 48 47 47 47 46 46 46 46 47 49 49 48 47 46 46 46 46 46 46 46 46 45 45 46 46 46 46 45 44 44 43 43 43 44 45 46 48 47 46 46 45 44 44 45 44 42 43 44 44 43 42 41 42 43 42 41 39 37 37 35 34 35 36 36 36 36 36 35 35 35 34 33 32 32 31 30 29 28 29
38 39 37 36 38 39 41 45 49 50 50 50 50 49 50 50 50 50 50 49 49 48 47 46 46 45 45 45 45 45 45 45 46 48 47 46 45 45 44 44 45 45 45 45 45 44 44 45 46 46 45 44 43 43 43 44 44 45 45 46 47 46 46 46 45 44 43 43 44 43 43 44 44 42 40 39 39 41 40 39 37 36 35 34 33 34 34 35 35 35 35 35 34 35 34 33 33 32 31 30 29 29 30
38 39 37 35 37 38 40 42 45 46 47 47 47 47 48 48 49 49 49 49 49 47 46 44 44 43 43 44 44 44 44 45 45 46 45 43 42 42 42 42 42 43 43 44 44 44 44 44 45 45 44 44 43 43 44 44 45 44 45 46 46 44 44 45 45 44 43 42 43 43 43 43 42 41 39 38 38 39 39 38 36 35 34 32 32 33 34 35 34 34 34 34 34 35 34 33 32 32 31 30 30 31 32
37 38 37 35 35 37 39 41 42 43 44 45 45 46 46 47 48 48 48 47 47 46 44 42 42 41 42 42 43 43 43 44 44 44 43 41 40 40 40 41 41 41 41 43 44 44 44 44 44 44 44 44 43 43 44 44 44 44 45 46 45 43 43 43 44 44 44 44 43 43 42 42 41 38 37 37 38 38 38 37 35 34 33 32 32 33 34 34 34 34 34 34 34 35 34 33 32 32 32 32 32 32 32
36 37 36 35 35 37 38 40 41 41 41 42 43 44 45 46 46 46 46 46 46 45 43 41 41 41 41 41 42 42 42 43 43 42 41 40 38 39 39 40 40 39 40 42 44 44 44 44 44 44 44 43 42 42 43 44 44 44 45 45 44 43 43 43 43 44 45 45 44 43 41 41 40 38 38 38 38 38 37 36 35 34 33 32 32 33 34 34 34 34 33 33 34 34 33 32 32 32 33 34 35 33 32
35 36 37 37 37 37 38 39 40 40 41 41 42 43 43 44 45 45 45 45 44 44 42 41 40 39 40 40 41 41 41 42 41 41 40 39 37 37 38 39 39 39 39 40 42 43 44 45 45 45 44 43 42 42 42 43 44 44 44 44 44 43 43 43 43 44 45 45 44 43 41 40 41 39 40 40 39 38 37 36 35 34 33 33 33 34 34 34 34 33 33 33 33 33 33 32 32 32 34 36 36 34 32
34 36 37 40 40 38 37 38 38 39 40 41 41 41 41 42 42 43 43 43 42 42 41 40 39 39 39 39 40 41 41 41 41 40 39 38 37 37 37 38 39 38 38 39 40 43 44 45 45 46 45 44 43 42 43 43 44 44 44 44 44 44 43 43 43 44 44 44 44 44 42 41 41 40 39 39 41 39 37 36 35 34 34 34 34 35 34 34 33 34 34 33 33 33 32 32 32 33 34 35 34 33 32
35 36 37 38 40 37 37 37 37 39 40 41 41 40 40 40 40 40 40 40 40 40 40 39 38 38 38 39 39 40 40 40 40 40 38 37 36 36 36 38 39 38 38 39 40 42 44 45 46 46 45 44 44 43 43 43 43 44 44 44 44 44 43 43 43 43 43 43 43 44 43 42 40 39 39 39 40 39 38 37 35 34 34 35 36 35 34 34 35 34 34 33 33 32 32 32 32 34 34 33 32 32 31
35 35 35 36 37 37 37 37 37 39 40 40 39 39 39 39 38 39 38 38 38 38 38 38 37 37 37 38 38 38 39 39 39 38 37 36 35 36 37 38 40 39 38 39 39 41 43 45 45 45 45 44 43 43 42 43 44 44 44 44 43 42 41 41 41 41 41 41 41 42 42 42 41 38 38 39 39 41 40 37 35 35 36 36 35 35 34 34 36 35 34 33 32 32 32 32 33 33 33 32 31 30 29
35 34 34 34 34 35 36 36 37 38 38 38 38 38 37 37 37 37 37 37 37 37 37 37 37 37 37 37 37 37 38 38 38 37 36 35 35 36 37 38 40 39 40 40 41 42 43 44 44 45 45 44 43 43 43 43 44 43 43 43 42 41 40 39 40 41 41 41 41 41 41 41 42 42 41 40 39 40 39 38 37 37 37 37 35 34 33 33 33 33 33 32 32 32 32 33 35 34 32 32 31 29 28
34 34 33 33 33 34 35 35 35 36 37 37 37 37 37 37 36 35 35 35 36 36 36 36 35 36 36 36 36 37 37 37 37 37 36 35 35 36 37 38 40 40 41 41 41 41 42 43 44 45 45 44 44 43 43 43 43 43 43 43 42 40 40 40 40 42 43 44 44 44 43 44 44 45 44 42 40 39 38 38 39 38 38 37 36 33 31 31 31 32 31 31 32 32 32 33 36 33 32 31 30 28 28
33 33 33 32 33 34 34 34 34 34 35 36 38 37 36 36 35 35 34 34 35 35 35 35 34 36 36 35 35 35 36 37 37 37 36 35 35 36 37 38 40 40 40 40 40 40 40 41 42 42 42 42 42 42 41 41 41 42 43 43 42 42 41 42 43 44 45 45 46 46 45 45 43 43 44 43 41 38 38 38 40 39 38 37 35 32 30 30 30 30 30 30 30 32 32 32 33 32 31 31 29 29 29
32 33 32 32 33 33 33 33 33 33 34 35 37 36 36 36 36 35 34 34 34 34 34 34 34 34 34 34 34 35 36 36 36 37 36 35 34 35 36 38 40 40 40 39 38 38 39 40 41 40 39 39 40 41 41 40 41 42 43 43 43 44 45 46 46 46 46 46 45 44 43 42 39 39 41 42 41 39 38 39 41 41 40 37 32 32 31 30 30 29 28 28 27 28 29 31 32 32 31 30 29 29 29
30 32 32 32 33 33 33 33 33 33 34 35 34 34 35 35 36 35 34 34 34 34 34 34 34 34 34 34 34 34 35 36 37 37 37 36 35 35 36 37 39 39 39 38 37 38 39 40 40 39 39 40 41 42 41 41 41 42 42 43 45 44 44 44 44 43 44 44 44 43 42 41 39 38 38 40 42 41 41 41 43 42 41 38 33 33 32 32 32 31 28 26 25 25 27 28 30 30 30 29 29 28 28
30 30 31 32 32 33 33 32 32 33 35 36 32 33 34 34 34 34 34 34 33 33 33 33 33 33 34 35 35 34 34 35 36 36 36 36 35 35 36 37 38 38 37 37 37 38 39 38 37 37 39 41 41 42 42 42 43 42 42 43 43 41 41 41 42 42 42 43 44 43 42 42 41 41 40 38 37 39 39 40 43 42 41 40 36 35 33 33 33 30 27 25 25 25 24 24 25 26 27 28 28 28 28
30 30 30 30 31 32 32 32 32 32 36 38 36 34 34 35 36 35 34 34 33 33 33 32 32 33 33 33 34 33 33 34 35 35 35 35 35 35 36 37 38 37 37 37 37 38 39 37 35 37 39 41 42 42 43 42 42 41 42 42 42 41 40 40 41 42 42 42 41 41 41 41 42 43 42 38 34 35 35 36 37 39 41 41 40 37 34 32 31 29 28 27 28 26 24 23 22 23 23 24 26 27 28
30 30 29 29 29 30 31 32 32 33 36 37 35 33 34 36 37 35 34 33 33 33 32 32 32 33 33 32 32 32 32 33 34 35 35 36 36 35 36 37 37 37 37 36 37 38 38 37 34 35 37 40 41 41 41 41 41 40 40 41 41 41 41 40 39 40 41 41 40 40 40 40 41 41 39 36 33 33 34 34 34 38 40 40 40 38 36 32 31 29 29 28 28 27 25 23 22 23 24 24 24 26 27
30 30 29 29 29 29 29 30 31 32 33 34 34 34 34 34 33 33 33 33 33 32 32 32 32 31 31 31 31 30 31 32 34 35 36 37 37 37 36 36 37 37 37 36 36 38 38 37 33 33 35 37 39 38 38 37 37 38 38 39 41 41 41 40 40 40 41 41 42 41 41 41 41 39 38 37 35 33 33 34 34 35 37 39 38 39 37 36 34 31 28 27 27 26 24 24 24 25 24 23 23 24 23
30 30 29 29 29 29 28 28 29 29 31 32 33 33 33 33 32 32 32 32 32 32 32 32 32 31 31 31 30 30 30 31 33 33 34 36 36 37 37 37 37 37 37 36 36 37 38 37 33 32 34 36 36 35 35 36 35 36 37 39 41 41 41 41 41 41 41 41 42 41 41 41 40 38 38 38 38 36 34 34 34 33 35 37 38 38 38 37 35 33 31 29 28 27 26 25 26 26 25 23 22 23 22
30 30 30 29 29 29 28 28 28 28 28 30 32 33 33 32 32 31 31 31 31 31 31 31 31 31 31 31 31 31 30 31 31 32 33 35 36 36 36 37 36 37 37 36 36 37 37 37 33 32 33 34 34 34 34 35 36 37 37 39 41 41 41 41 41 41 41 40 40 40 41 41 43 40 38 38 39 38 37 35 33 32 33 34 37 37 37 37 35 35 34 32 31 30 28 27 26 25 24 23 21 21 21
30 30 30 29 29 29 29 29 28 28 28 28 31 32 32 31 31 31 31 31 31 31 30 30 30 30 30 31 31 32 32 31 31 32 34 35 36 36 36 37 36 37 36 36 36 37 37 37 34 33 33 34 34 34 34 35 35 35 36 37 40 41 41 40 39 39 39 39 40 42 43 43 42 40 39 38 39 38 36 34 32 32 32 33 34 34 36 36 34 35 35 34 32 32 31 29 27 25 23 23 22 20 20
31 30 30 30 29 32 32 31 28 28 28 28 28 29 29 29 29 29 29 30 30 30 30 30 29 29 29 29 30 30 31 32 32 32 33 34 34 35 35 36 36 36 36 36 36 36 37 37 35 33 33 34 34 34 35 34 35 35 35 36 37 39 39 38 37 37 38 40 41 43 43 42 41 39 39 39 39 37 36 33 32 32 32 33 33 32 32 33 35 33 32 32 31 30 30 29 28 26 25 23 22 21 19
31 31 30 30 30 32 33 33 30 29 28 28 27 29 29 28 28 28 28 28 28 31 31 29 29 28 28 28 28 30 31 32 31 32 32 32 33 34 35 35 36 36 36 36 35 35 36 36 35 33 34 34 34 34 35 35 35 35 35 35 37 38 37 37 37 37 37 38 38 39 39 39 39 38 37 38 38 37 36 34 34 33 33 34 33 32 31 31 32 32 31 30 29 29 29 29 28 28 27 26 24 23 21
28 30 31 30 30 29 31 32 31 30 31 31 28 28 29 30 29 28 28 27 28 28 29 29 29 29 29 29 30 32 33 33 31 32 32 32 32 33 34 34 35 36 36 36 35 35 35 36 36 34 34 36 36 36 36 36 36 36 36 37 38 39 38 37 36 36 36 35 35 34 35 35 36 35 35 35 36 37 37 36 36 34 33 32 33 32 31 31 30 30 29 29 28 28 28 27 27 26 27 27 27 25 23
27 28 30 30 29 29 29 29 29 28 31 32 29 29 30 32 32 30 28 28 28 28 28 28 30 32 31 29 29 30 31 32 31 31 31 31 32 32 33 34 35 35 36 36 36 35 35 35 35 34 35 37 38 37 37 37 36 36 36 37 38 38 37 35 34 34 34 34 34 34 33 33 33 33 33 33 33 35 35 36 35 33 32 32 32 31 31 31 30 29 28 28 27 27 26 26 26 25 25 26 27 26 24
27 29 31 31 29 29 29 29 28 28 29 30 29 29 29 30 32 30 29 28 29 29 28 28 29 29 29 28 28 28 29 29 30 31 31 31 31 32 32 33 34 35 36 36 36 35 35 35 35 35 36 37 38 37 37 36 36 36 36 37 39 37 35 34 33 33 33 33 33 33 33 32 32 32 32 32 32 32 33 33 32 31 31 31 31 31 30 30 30 29 28 27 27 26 25 25 24 24 24 23 24 24 24
28 30 30 30 29 29 29 29 29 29 29 29 29 29 29 29 29 29 29 29 29 30 30 30 29 28 28 28 28 28 28 28 30 31 31 31 31 32 32 32 33 35 36 36 36 36 35 35 35 35 35 35 35 35 35 34 34 34 35 37 39 36 34 33 33 32 32 32 32 32 32 32 32 32 32 31 30 31 31 32 31 31 31 30 30 29 29 29 29 28 28 27 26 26 25 24 23 23 23 23 23 23 23
30 30 30 29 29 29 29 29 29 29 29 29 29 28 28 28 29 28 28 28 30 30 31 30 30 29 28 28 27 27 27 27 28 29 30 30 31 31 32 32 33 34 35 36 36 35 35 35 34 34 33 33 32 32 33 33 32 33 34 35 37 35 33 33 32 32 32 32 31 31 31 31 31 31 30 30 29 29 30 29 29 29 28 28 28 28 27 27 28 28 27 27 27 26 26 25 25 24 24 24 24 23 23
30 30 29 28 27 27 27 27 27 27 27 28 27 27 27 28 28 28 28 29 30 31 31 31 31 30 29 28 28 27 27 26 27 27 28 30 31 32 32 33 33 34 34 34 34 35 34 34 33 32 32 32 32 32 32 33 33 33 33 34 34 33 33 32 32 32 32 32 31 31 31 31 31 30 29 29 28 28 28 28 28 27 27 26 26 26 26 26 27 27 27 27 27 27 27 27 26 26 25 25 25 24 24
30 30 28 26 25 25 25 25 25 25 25 26 26 26 26 27 27 28 28 30 31 31 32 32 32 31 31 30 29 28 28 28 27 28 28 29 31 32 32 33 33 33 33 33 33 33 33 33 32 32 32 32 32 32 33 33 34 34 33 33 33 33 33 33 33 32 32 32 32 32 32 32 31 30 29 29 28 28 28 28 27 26 26 25 25 26 26 26 26 26 27 27 27 27 27 27 27 27 26 26 26 25 25
29 28 27 25 24 23 24 24 24 24 24 24 25 25 26 26 27 28 29 31 32 32 32 32 32 32 31 31 31 30 30 29 29 28 29 30 31 32 32 32 32 32 32 32 32 32 32 32 32 32 32 32 32 32 33 33 33 33 34 33 33 33 33 33 33 33 33 33 32 32 32 32 31 30 29 28 28 27 27 27 26 26 26 26 25 26 26 26 26 26 27 27 27 28 27 27 26 27 27 27 26 26 26
28 27 25 24 23 23 23 24 24 24 24 24 24 25 25 26 28 29 31 32 33 34 33 33 33 32 32 32 32 31 30 30 30 29 29 30 30 31 32 32 32 31 31 31 31 31 31 31 32 32 32 33 33 33 33 33 33 33 33 33 33 33 34 34 34 34 34 33 33 32 32 32 30 30 29 28 27 27 27 27 26 26 26 26 26 26 26 27 27 27 27 27 27 27 27 27 26 26 26 26 26 26 26
27 26 25 25 23 23 23 23 24 23 23 24 24 24 25 27 30 32 33 33 34 34 34 34 34 34 33 33 32 32 31 31 30 29 29 29 30 31 31 31 31 31 31 31 31 31 31 32 32 32 32 33 33 33 33 33 34 34 34 34 34 33 34 34 34 34 34 33 33 32 32 31 30 29 28 28 27 27 27 27 26 26 26 26 26 26 26 26 26 26 26 26 26 26 26 26 26 26 26 26 26 26 25